TCN200 KOAK-KCHA

Flight info

Callsign TCN200
Flight time 3h 24m
Altitude 45000
Route CNDEL5 NTELL Q158 JEDNA TBC J76 FTI J58 PNH J6 IRW FSM CHETN GQO
Aircraft C750/M-SBDE3FGHJ7RWXY/SV2D1G1

Departure

Time 2026-04-27 16:56
Airport San Francisco Bay Oakland International Airport (KOAK)

Arrival

Time 2026-04-27 20:20
Airport Chattanooga Metropolitan Airport (Lovell Field) (KCHA)
Time Latitude Longitude Altitude Speed Heading
2026-04-27 16:42 37.72968 -122.21170 5 ft 0 kts 305°
2026-04-27 16:50 37.72968 -122.21171 5 ft 1 kts 305°
2026-04-27 16:50 37.72970 -122.21207 5 ft 6 kts 231°
2026-04-27 16:51 37.72931 -122.21239 5 ft 7 kts 214°
2026-04-27 16:51 37.72892 -122.21276 5 ft 8 kts 214°
2026-04-27 16:51 37.72839 -122.21250 5 ft 11 kts 129°
2026-04-27 16:51 37.72807 -122.21155 6 ft 12 kts 110°
2026-04-27 16:52 37.72777 -122.21062 6 ft 11 kts 113°
2026-04-27 16:52 37.72744 -122.20963 6 ft 13 kts 112°
2026-04-27 16:52 37.72707 -122.20849 6 ft 14 kts 112°
2026-04-27 16:52 37.72672 -122.20743 5 ft 13 kts 112°
2026-04-27 16:53 37.72637 -122.20633 5 ft 14 kts 112°
2026-04-27 16:53 37.72599 -122.20519 5 ft 14 kts 112°
2026-04-27 16:53 37.72543 -122.20452 5 ft 12 kts 194°
2026-04-27 16:53 37.72461 -122.20493 5 ft 13 kts 200°
2026-04-27 16:54 37.72383 -122.20532 5 ft 11 kts 202°
2026-04-27 16:54 37.72317 -122.20566 5 ft 9 kts 202°
2026-04-27 16:54 37.72257 -122.20596 4 ft 10 kts 202°
2026-04-27 16:54 37.72241 -122.20649 3 ft 3 kts 291°
2026-04-27 16:55 37.72241 -122.20650 3 ft 0 kts 291°
2026-04-27 16:55 37.72254 -122.20691 3 ft 27 kts 291°
2026-04-27 16:55 37.72450 -122.21300 6 ft 117 kts 292°
2026-04-27 16:55 37.72800 -122.22412 253 ft 138 kts 290°
2026-04-27 16:56 37.73146 -122.23541 841 ft 145 kts 295°
2026-04-27 16:56 37.73697 -122.24768 1173 ft 175 kts 298°
2026-04-27 16:56 37.74344 -122.26224 1509 ft 206 kts 297°
2026-04-27 16:56 37.75075 -122.27925 1857 ft 234 kts 296°
2026-04-27 16:57 37.75868 -122.29767 2029 ft 244 kts 297°
2026-04-27 16:57 37.76847 -122.31520 2018 ft 252 kts 308°
2026-04-27 16:57 37.77991 -122.33163 3092 ft 242 kts 309°
2026-04-27 16:57 37.78969 -122.34909 3812 ft 249 kts 291°
2026-04-27 16:58 37.79217 -122.37058 4675 ft 248 kts 266°
2026-04-27 16:58 37.78712 -122.39140 5482 ft 253 kts 240°
2026-04-27 16:58 37.77480 -122.40748 6308 ft 261 kts 214°
2026-04-27 16:58 37.75754 -122.41517 7109 ft 267 kts 194°
2026-04-27 16:59 37.73909 -122.41916 7974 ft 272 kts 192°
2026-04-27 16:59 37.72019 -122.42316 8850 ft 277 kts 192°
2026-04-27 16:59 37.70102 -122.42748 9664 ft 283 kts 193°
2026-04-27 16:59 37.68142 -122.43193 10265 ft 293 kts 193°
2026-04-27 17:00 37.64622 -122.43977 10959 ft 315 kts 192°
2026-04-27 17:00 37.61715 -122.44620 11872 ft 321 kts 192°
2026-04-27 17:00 37.59530 -122.45111 12513 ft 325 kts 193°
2026-04-27 17:01 37.57291 -122.45611 13177 ft 330 kts 193°
2026-04-27 17:01 37.54982 -122.46123 13860 ft 334 kts 193°
2026-04-27 17:01 37.52678 -122.46623 14469 ft 338 kts 192°
2026-04-27 17:01 37.50305 -122.46504 14943 ft 350 kts 168°
2026-04-27 17:02 37.48088 -122.45223 15582 ft 356 kts 146°
2026-04-27 17:02 37.46380 -122.43009 16190 ft 360 kts 128°
2026-04-27 17:02 37.44883 -122.40412 16846 ft 364 kts 126°
2026-04-27 17:02 37.43422 -122.37787 17467 ft 369 kts 126°
2026-04-27 17:03 37.41920 -122.35154 18109 ft 373 kts 126°
2026-04-27 17:03 37.40808 -122.32229 18556 ft 381 kts 105°
2026-04-27 17:03 37.40180 -122.28996 19238 ft 381 kts 102°
2026-04-27 17:03 37.39566 -122.25741 19834 ft 385 kts 103°
2026-04-27 17:04 37.38909 -122.22466 20433 ft 389 kts 104°
2026-04-27 17:04 37.38236 -122.19162 21032 ft 392 kts 103°
2026-04-27 17:04 37.37573 -122.15815 21620 ft 396 kts 103°
2026-04-27 17:04 37.36911 -122.12443 22238 ft 400 kts 103°
2026-04-27 17:05 37.36231 -122.09039 22835 ft 403 kts 103°
2026-04-27 17:05 37.35541 -122.05613 23434 ft 407 kts 103°
2026-04-27 17:05 37.34848 -122.02149 23966 ft 410 kts 103°
2026-04-27 17:05 37.34151 -121.98660 24460 ft 413 kts 103°
2026-04-27 17:06 37.33446 -121.95146 24967 ft 416 kts 103°
2026-04-27 17:06 37.32732 -121.91608 25456 ft 419 kts 103°
2026-04-27 17:06 37.32015 -121.88046 25969 ft 423 kts 103°
2026-04-27 17:06 37.31289 -121.84449 26465 ft 426 kts 103°
2026-04-27 17:07 37.30558 -121.80834 26973 ft 429 kts 103°
2026-04-27 17:07 37.29819 -121.77185 27470 ft 433 kts 103°
2026-04-27 17:07 37.29074 -121.73510 27989 ft 436 kts 103°
2026-04-27 17:07 37.28320 -121.69801 28497 ft 440 kts 103°
2026-04-27 17:08 37.27561 -121.66074 29003 ft 443 kts 103°
2026-04-27 17:08 37.26795 -121.62314 29510 ft 446 kts 103°
2026-04-27 17:08 37.26021 -121.58527 29998 ft 450 kts 103°
2026-04-27 17:08 37.25239 -121.54705 30433 ft 453 kts 103°
2026-04-27 17:09 37.24452 -121.50868 30883 ft 455 kts 103°
2026-04-27 17:09 37.23659 -121.47009 31311 ft 458 kts 103°
2026-04-27 17:09 37.22861 -121.43127 31736 ft 461 kts 103°
2026-04-27 17:09 37.22057 -121.39225 32140 ft 464 kts 103°
2026-04-27 17:10 37.21244 -121.35292 32557 ft 466 kts 103°
2026-04-27 17:10 37.20428 -121.31344 32961 ft 469 kts 104°
2026-04-27 17:10 37.19604 -121.27368 33376 ft 472 kts 104°
2026-04-27 17:10 37.18774 -121.23371 33756 ft 475 kts 104°
2026-04-27 17:11 37.17937 -121.19350 34153 ft 478 kts 104°
2026-04-27 17:11 37.16249 -121.11256 34901 ft 480 kts 104°
2026-04-27 17:11 37.15403 -121.07210 35353 ft 480 kts 105°
2026-04-27 17:12 37.13703 -120.99109 36189 ft 481 kts 105°
2026-04-27 17:12 37.12851 -120.95058 36602 ft 482 kts 105°
2026-04-27 17:12 37.11995 -120.90996 37031 ft 482 kts 106°
2026-04-27 17:13 37.11137 -120.86929 37463 ft 483 kts 106°
2026-04-27 17:13 37.10278 -120.82868 37891 ft 483 kts 106°
2026-04-27 17:13 37.09416 -120.78801 38327 ft 484 kts 106°
2026-04-27 17:13 37.08550 -120.74724 38749 ft 484 kts 107°
2026-04-27 17:14 37.07685 -120.70653 39090 ft 485 kts 107°
2026-04-27 17:14 37.06816 -120.66574 39445 ft 484 kts 107°
2026-04-27 17:14 37.05946 -120.62501 39797 ft 484 kts 107°
2026-04-27 17:14 37.05075 -120.58428 40153 ft 484 kts 107°
2026-04-27 17:15 37.04203 -120.54356 40508 ft 484 kts 107°
2026-04-27 17:15 37.03331 -120.50292 40862 ft 484 kts 107°
2026-04-27 17:15 37.02456 -120.46224 41209 ft 484 kts 107°
2026-04-27 17:15 37.01581 -120.42161 41566 ft 484 kts 107°
2026-04-27 17:16 37.00704 -120.38097 41905 ft 484 kts 107°
2026-04-27 17:16 36.99824 -120.34029 42243 ft 484 kts 107°
2026-04-27 17:16 36.98945 -120.29968 42569 ft 484 kts 107°
2026-04-27 17:16 36.98076 -120.25962 42901 ft 484 kts 107°
2026-04-27 17:17 36.97192 -120.21899 43130 ft 486 kts 107°
2026-04-27 17:17 36.95385 -120.13613 43108 ft 501 kts 107°
2026-04-27 17:18 36.93523 -120.05096 43126 ft 515 kts 107°
2026-04-27 17:18 36.92590 -120.00846 43124 ft 522 kts 108°
2026-04-27 17:18 36.90643 -119.91996 43116 ft 534 kts 108°
2026-04-27 17:19 36.89330 -119.82762 43111 ft 546 kts 97°
2026-04-27 17:19 36.88597 -119.73244 43110 ft 554 kts 98°
2026-04-27 17:20 36.87609 -119.63656 43109 ft 560 kts 98°
2026-04-27 17:20 36.86776 -119.53960 43102 ft 563 kts 98°
2026-04-27 17:21 36.85817 -119.44265 43093 ft 563 kts 98°
2026-04-27 17:21 36.84923 -119.34553 43085 ft 563 kts 98°
2026-04-27 17:22 36.83980 -119.24855 43071 ft 563 kts 98°
2026-04-27 17:22 36.83048 -119.15137 43065 ft 564 kts 98°
2026-04-27 17:23 36.82100 -119.05429 43064 ft 564 kts 98°
2026-04-27 17:23 36.81144 -118.95720 43052 ft 564 kts 98°
2026-04-27 17:24 36.80185 -118.86014 43042 ft 564 kts 99°
2026-04-27 17:24 36.79210 -118.76294 43038 ft 564 kts 99°
2026-04-27 17:25 36.78236 -118.66589 43018 ft 563 kts 99°
2026-04-27 17:25 36.77231 -118.56912 43006 ft 564 kts 99°
2026-04-27 17:26 36.76197 -118.47210 42982 ft 564 kts 99°
2026-04-27 17:26 36.75175 -118.37533 42969 ft 564 kts 99°
2026-04-27 17:27 36.74135 -118.27894 42954 ft 565 kts 99°
2026-04-27 17:27 36.73084 -118.18135 42938 ft 565 kts 99°
2026-04-27 17:28 36.72032 -118.08503 42936 ft 565 kts 99°
2026-04-27 17:29 36.70433 -117.93956 42927 ft 564 kts 99°
2026-04-27 17:29 36.69360 -117.84300 42953 ft 563 kts 99°
2026-04-27 17:30 36.68276 -117.74622 42960 ft 564 kts 99°
2026-04-27 17:30 36.66637 -117.60109 42973 ft 564 kts 99°
2026-04-27 17:31 36.65535 -117.50441 42967 ft 563 kts 100°
2026-04-27 17:31 36.64426 -117.40787 42973 ft 564 kts 100°
2026-04-27 17:32 36.62935 -117.27907 42972 ft 565 kts 100°
2026-04-27 17:33 36.61804 -117.18228 42968 ft 566 kts 100°
2026-04-27 17:33 36.60663 -117.08533 42965 ft 566 kts 100°
2026-04-27 17:34 36.59519 -116.98836 42956 ft 567 kts 100°
2026-04-27 17:34 36.58362 -116.89124 42951 ft 567 kts 101°
2026-04-27 17:35 36.57200 -116.79412 42951 ft 568 kts 101°
2026-04-27 17:35 36.55607 -116.69821 42951 ft 565 kts 108°
2026-04-27 17:36 36.53451 -116.60431 42957 ft 565 kts 108°
2026-04-27 17:36 36.51456 -116.50957 42959 ft 566 kts 108°
2026-04-27 17:37 36.49336 -116.41538 42945 ft 566 kts 108°
2026-04-27 17:37 36.47283 -116.32089 42957 ft 567 kts 108°
2026-04-27 17:37 36.46255 -116.27433 43820 ft 546 kts 109°
2026-04-27 17:38 36.45252 -116.22969 44808 ft 530 kts 109°
2026-04-27 17:38 36.44263 -116.18569 44922 ft 533 kts 109°
2026-04-27 17:38 36.43270 -116.14114 44930 ft 538 kts 109°
2026-04-27 17:39 36.41255 -116.05091 44946 ft 546 kts 109°
2026-04-27 17:39 36.39195 -115.95948 44968 ft 554 kts 109°
2026-04-27 17:40 36.37109 -115.86688 44969 ft 560 kts 109°
2026-04-27 17:40 36.34991 -115.77351 44973 ft 564 kts 109°
2026-04-27 17:41 36.32880 -115.67959 44967 ft 567 kts 107°
2026-04-27 17:41 36.31971 -115.58195 44959 ft 574 kts 93°
2026-04-27 17:42 36.31927 -115.48295 44962 ft 573 kts 94°
2026-04-27 17:42 36.31473 -115.38430 44966 ft 573 kts 95°
2026-04-27 17:43 36.31279 -115.28544 44972 ft 575 kts 94°
2026-04-27 17:43 36.30907 -115.18636 44974 ft 576 kts 95°
2026-04-27 17:44 36.30621 -115.08684 44951 ft 578 kts 94°
2026-04-27 17:44 36.30281 -114.98711 44950 ft 579 kts 95°
2026-04-27 17:45 36.29946 -114.88729 44947 ft 580 kts 95°
2026-04-27 17:45 36.29606 -114.78734 44948 ft 580 kts 95°
2026-04-27 17:46 36.29245 -114.68737 44942 ft 581 kts 95°
2026-04-27 17:46 36.28891 -114.58727 44936 ft 582 kts 95°
2026-04-27 17:47 36.28512 -114.48691 44928 ft 582 kts 95°
2026-04-27 17:47 36.28139 -114.38679 44941 ft 582 kts 96°
2026-04-27 17:48 36.27746 -114.28657 44933 ft 582 kts 96°
2026-04-27 17:48 36.27354 -114.18645 44922 ft 583 kts 96°
2026-04-27 17:49 36.26947 -114.08623 44935 ft 582 kts 96°
2026-04-27 17:49 36.26539 -113.98674 44942 ft 582 kts 96°
2026-04-27 17:50 36.26116 -113.88648 44942 ft 583 kts 96°
2026-04-27 17:50 36.25467 -113.73582 44941 ft 584 kts 96°
2026-04-27 17:51 36.25023 -113.63529 44936 ft 585 kts 96°
2026-04-27 17:51 36.24571 -113.53469 44940 ft 585 kts 96°
2026-04-27 17:52 36.24109 -113.43409 44948 ft 586 kts 96°
2026-04-27 17:52 36.23641 -113.33345 44935 ft 585 kts 97°
2026-04-27 17:53 36.23161 -113.23275 44941 ft 586 kts 97°
2026-04-27 17:53 36.22674 -113.13192 44934 ft 586 kts 97°
2026-04-27 17:54 36.22177 -113.03107 44929 ft 587 kts 97°
2026-04-27 17:54 36.21674 -112.93022 44934 ft 587 kts 97°
2026-04-27 17:55 36.21158 -112.82923 44928 ft 588 kts 97°
2026-04-27 17:55 36.20638 -112.72838 44947 ft 586 kts 97°
2026-04-27 17:56 36.20105 -112.62747 44949 ft 589 kts 97°
2026-04-27 17:56 36.19567 -112.52630 44949 ft 589 kts 97°
2026-04-27 17:57 36.19018 -112.42533 44961 ft 586 kts 97°
2026-04-27 17:57 36.18466 -112.32518 44992 ft 581 kts 98°
2026-04-27 17:58 36.17905 -112.22529 45007 ft 582 kts 98°
2026-04-27 17:58 36.17339 -112.12519 45009 ft 583 kts 98°
2026-04-27 17:59 36.16760 -112.02496 45005 ft 586 kts 98°
2026-04-27 17:59 36.16171 -111.92420 44951 ft 584 kts 98°
2026-04-27 18:00 36.15579 -111.82414 44945 ft 584 kts 98°
2026-04-27 18:00 36.14970 -111.72362 44942 ft 588 kts 98°
2026-04-27 18:01 36.14356 -111.62242 44943 ft 591 kts 98°
2026-04-27 18:01 36.13725 -111.52090 44949 ft 592 kts 98°
2026-04-27 18:02 36.13089 -111.41922 44943 ft 593 kts 98°
2026-04-27 18:02 36.12441 -111.31765 44946 ft 593 kts 98°
2026-04-27 18:03 36.11886 -111.21576 44946 ft 594 kts 97°
2026-04-27 18:03 36.11335 -111.11370 44956 ft 595 kts 98°
2026-04-27 18:04 36.10833 -111.01218 44947 ft 595 kts 97°
2026-04-27 18:04 36.10287 -110.91009 44947 ft 596 kts 98°
2026-04-27 18:05 36.09748 -110.80781 44955 ft 596 kts 98°
2026-04-27 18:05 36.09195 -110.70556 44952 ft 596 kts 98°
2026-04-27 18:06 36.08631 -110.60319 44958 ft 597 kts 98°
2026-04-27 18:06 36.08063 -110.50087 44958 ft 597 kts 98°
2026-04-27 18:07 36.07481 -110.39852 44958 ft 597 kts 98°
2026-04-27 18:07 36.06894 -110.29611 44961 ft 597 kts 98°
2026-04-27 18:08 36.06295 -110.19374 44964 ft 598 kts 98°
2026-04-27 18:08 36.05690 -110.09123 44956 ft 598 kts 98°
2026-04-27 18:09 36.05073 -109.98877 44959 ft 598 kts 98°
2026-04-27 18:09 36.04449 -109.88618 44961 ft 598 kts 98°
2026-04-27 18:10 36.03819 -109.78425 44951 ft 599 kts 99°
2026-04-27 18:10 36.03177 -109.68166 44948 ft 599 kts 99°
2026-04-27 18:11 36.02520 -109.57829 44949 ft 599 kts 99°
2026-04-27 18:11 36.01864 -109.47632 44951 ft 600 kts 99°
2026-04-27 18:12 36.01193 -109.37346 44959 ft 601 kts 99°
2026-04-27 18:12 36.00513 -109.27061 44952 ft 601 kts 99°
2026-04-27 18:13 35.99824 -109.16767 44968 ft 602 kts 99°
2026-04-27 18:13 35.99125 -109.06465 44962 ft 602 kts 99°
2026-04-27 18:14 35.98417 -108.96158 44956 ft 602 kts 99°
2026-04-27 18:14 35.97700 -108.85853 44941 ft 603 kts 99°
2026-04-27 18:15 35.96974 -108.75548 44942 ft 601 kts 99°
2026-04-27 18:15 35.96239 -108.65243 44932 ft 603 kts 99°
2026-04-27 18:16 35.95623 -108.56684 44927 ft 603 kts 99°
2026-04-27 18:16 35.94869 -108.46356 44932 ft 604 kts 99°
2026-04-27 18:17 35.94109 -108.36039 44940 ft 604 kts 99°
2026-04-27 18:17 35.93339 -108.25723 44937 ft 604 kts 99°
2026-04-27 18:18 35.92560 -108.15410 44948 ft 604 kts 100°
2026-04-27 18:18 35.91773 -108.05097 44947 ft 603 kts 100°
2026-04-27 18:19 35.90976 -107.94791 44956 ft 604 kts 100°
2026-04-27 18:19 35.90172 -107.84479 44949 ft 604 kts 100°
2026-04-27 18:20 35.89357 -107.74179 44952 ft 603 kts 100°
2026-04-27 18:20 35.88537 -107.63893 44949 ft 602 kts 100°
2026-04-27 18:21 35.87705 -107.53605 44957 ft 603 kts 100°
2026-04-27 18:21 35.86867 -107.43322 44948 ft 602 kts 100°
2026-04-27 18:22 35.86019 -107.33052 44957 ft 602 kts 100°
2026-04-27 18:22 35.85163 -107.22796 44953 ft 602 kts 100°
2026-04-27 18:23 35.84298 -107.12539 44959 ft 601 kts 100°
2026-04-27 18:23 35.83426 -107.02295 44960 ft 601 kts 100°
2026-04-27 18:24 35.82545 -106.92060 44958 ft 600 kts 101°
2026-04-27 18:24 35.81656 -106.81839 44948 ft 601 kts 101°
2026-04-27 18:25 35.80759 -106.71609 44944 ft 601 kts 101°
2026-04-27 18:25 35.79857 -106.61444 44972 ft 601 kts 101°
2026-04-27 18:26 35.78939 -106.51183 45006 ft 601 kts 101°
2026-04-27 18:26 35.78016 -106.40961 45040 ft 601 kts 101°
2026-04-27 18:27 35.77083 -106.30743 45051 ft 599 kts 101°
2026-04-27 18:27 35.76145 -106.20560 45042 ft 598 kts 101°
2026-04-27 18:28 35.75199 -106.10385 45030 ft 598 kts 101°
2026-04-27 18:28 35.74245 -106.00219 45026 ft 598 kts 101°
2026-04-27 18:29 35.73281 -105.90041 44999 ft 599 kts 101°
2026-04-27 18:29 35.72308 -105.79863 44966 ft 598 kts 101°
2026-04-27 18:30 35.71328 -105.69696 44911 ft 598 kts 101°
2026-04-27 18:30 35.70340 -105.59550 44894 ft 599 kts 101°
2026-04-27 18:31 35.69338 -105.49344 44929 ft 602 kts 101°
2026-04-27 18:31 35.68332 -105.39178 44958 ft 603 kts 102°
2026-04-27 18:32 35.67307 -105.28926 45004 ft 605 kts 102°
2026-04-27 18:32 35.66274 -105.18667 45027 ft 606 kts 102°
2026-04-27 18:33 35.65214 -105.08375 45022 ft 608 kts 102°
2026-04-27 18:33 35.64055 -104.98063 44993 ft 609 kts 102°
2026-04-27 18:34 35.62941 -104.87717 44925 ft 611 kts 102°
2026-04-27 18:34 35.61780 -104.77371 44848 ft 611 kts 103°
2026-04-27 18:35 35.60632 -104.67019 44794 ft 611 kts 102°
2026-04-27 18:35 35.59464 -104.56674 44785 ft 611 kts 103°
2026-04-27 18:36 35.58290 -104.46326 44766 ft 612 kts 103°
2026-04-27 18:36 35.57109 -104.35984 44757 ft 611 kts 103°
2026-04-27 18:37 35.55917 -104.25666 44760 ft 610 kts 103°
2026-04-27 18:37 35.54722 -104.15351 44763 ft 610 kts 103°
2026-04-27 18:38 35.53512 -104.05036 44761 ft 610 kts 103°
2026-04-27 18:38 35.52299 -103.94733 44758 ft 610 kts 103°
2026-04-27 18:39 35.51075 -103.84437 44760 ft 609 kts 103°
2026-04-27 18:39 35.49841 -103.74133 44781 ft 610 kts 103°
2026-04-27 18:40 35.48600 -103.63831 44798 ft 611 kts 103°
2026-04-27 18:40 35.47348 -103.53529 44807 ft 610 kts 103°
2026-04-27 18:41 35.46098 -103.43301 44787 ft 610 kts 103°
2026-04-27 18:41 35.44829 -103.33012 44768 ft 610 kts 103°
2026-04-27 18:42 35.43761 -103.24396 44764 ft 610 kts 103°
2026-04-27 18:42 35.42269 -103.12457 44767 ft 610 kts 103°
2026-04-27 18:43 35.40976 -103.02184 44775 ft 610 kts 103°
2026-04-27 18:43 35.39673 -102.91912 44775 ft 610 kts 103°
2026-04-27 18:44 35.38363 -102.81648 44779 ft 609 kts 103°
2026-04-27 18:44 35.37045 -102.71395 44782 ft 609 kts 103°
2026-04-27 18:45 35.35720 -102.61154 44776 ft 609 kts 103°
2026-04-27 18:45 35.34386 -102.50922 44771 ft 608 kts 103°
2026-04-27 18:46 35.33045 -102.40703 44772 ft 608 kts 103°
2026-04-27 18:46 35.31696 -102.30490 44772 ft 607 kts 103°
2026-04-27 18:47 35.30340 -102.20287 44764 ft 607 kts 103°
2026-04-27 18:47 35.28973 -102.10079 44775 ft 607 kts 103°
2026-04-27 18:48 35.27600 -101.99892 44820 ft 607 kts 103°
2026-04-27 18:48 35.26218 -101.89701 44880 ft 607 kts 103°
2026-04-27 18:49 35.24838 -101.79594 44916 ft 607 kts 103°
2026-04-27 18:49 35.23631 -101.69364 44910 ft 611 kts 96°
2026-04-27 18:50 35.23935 -101.58959 44923 ft 614 kts 86°
2026-04-27 18:50 35.24575 -101.48541 44873 ft 613 kts 90°
2026-04-27 18:51 35.24893 -101.38124 44817 ft 614 kts 88°
2026-04-27 18:51 35.25479 -101.27714 44762 ft 613 kts 88°
2026-04-27 18:52 35.25830 -101.17291 44755 ft 613 kts 88°
2026-04-27 18:53 35.26545 -101.01674 44755 ft 613 kts 89°
2026-04-27 18:53 35.26943 -100.91267 44752 ft 613 kts 88°
2026-04-27 18:54 35.27390 -100.80859 44748 ft 612 kts 88°
2026-04-27 18:54 35.27774 -100.70459 44754 ft 612 kts 88°
2026-04-27 18:55 35.28195 -100.60048 44752 ft 612 kts 88°
2026-04-27 18:55 35.28571 -100.49638 44751 ft 612 kts 88°
2026-04-27 18:56 35.28962 -100.39309 44755 ft 612 kts 88°
2026-04-27 18:56 35.29328 -100.28896 44757 ft 612 kts 88°
2026-04-27 18:57 35.29699 -100.18478 44755 ft 612 kts 88°
2026-04-27 18:57 35.30051 -100.08067 44754 ft 613 kts 88°
2026-04-27 18:58 35.30400 -99.97648 44757 ft 612 kts 88°
2026-04-27 18:58 35.30737 -99.87231 44753 ft 612 kts 88°
2026-04-27 18:59 35.31067 -99.76812 44757 ft 613 kts 88°
2026-04-27 18:59 35.31387 -99.66391 44781 ft 612 kts 88°
2026-04-27 19:00 35.31699 -99.55967 44807 ft 612 kts 88°
2026-04-27 19:00 35.32001 -99.45564 44823 ft 611 kts 88°
2026-04-27 19:01 35.32294 -99.35166 44826 ft 611 kts 89°
2026-04-27 19:01 35.32530 -99.26535 44838 ft 610 kts 89°
2026-04-27 19:02 35.32852 -99.14399 44836 ft 609 kts 89°
2026-04-27 19:02 35.33117 -99.04033 44818 ft 608 kts 89°
2026-04-27 19:03 35.33330 -98.95429 44792 ft 608 kts 89°
2026-04-27 19:03 35.33579 -98.85083 44780 ft 607 kts 89°
2026-04-27 19:04 35.33817 -98.74747 44801 ft 607 kts 89°
2026-04-27 19:04 35.34047 -98.64429 44798 ft 606 kts 89°
2026-04-27 19:05 35.34267 -98.54122 44791 ft 605 kts 89°
2026-04-27 19:05 35.34478 -98.43815 44778 ft 605 kts 89°
2026-04-27 19:06 35.34681 -98.33525 44766 ft 604 kts 89°
2026-04-27 19:06 35.34874 -98.23238 44780 ft 604 kts 89°
2026-04-27 19:07 35.35060 -98.12956 44791 ft 604 kts 89°
2026-04-27 19:07 35.35177 -98.06145 44799 ft 604 kts 89°
2026-04-27 19:08 35.35311 -97.98084 44803 ft 604 kts 89°
2026-04-27 19:08 35.35475 -97.87803 44789 ft 604 kts 89°
2026-04-27 19:09 35.35629 -97.77517 44788 ft 604 kts 90°
2026-04-27 19:09 35.35776 -97.67240 44807 ft 604 kts 90°
2026-04-27 19:10 35.35922 -97.56957 44806 ft 604 kts 89°
2026-04-27 19:10 35.36193 -97.46687 44803 ft 603 kts 89°
2026-04-27 19:11 35.36382 -97.36415 44805 ft 603 kts 89°
2026-04-27 19:11 35.36605 -97.26139 44803 ft 603 kts 89°
2026-04-27 19:12 35.36799 -97.15873 44788 ft 603 kts 89°
2026-04-27 19:12 35.36988 -97.05618 44775 ft 602 kts 89°
2026-04-27 19:13 35.37174 -96.95362 44775 ft 602 kts 89°
2026-04-27 19:13 35.37341 -96.85122 44783 ft 601 kts 89°
2026-04-27 19:14 35.37510 -96.74874 44791 ft 601 kts 89°
2026-04-27 19:14 35.37662 -96.64637 44787 ft 601 kts 89°
2026-04-27 19:15 35.37811 -96.54409 44777 ft 600 kts 89°
2026-04-27 19:15 35.37947 -96.44183 44770 ft 600 kts 89°
2026-04-27 19:16 35.38078 -96.33972 44758 ft 599 kts 89°
2026-04-27 19:16 35.38197 -96.23757 44743 ft 599 kts 89°
2026-04-27 19:17 35.38309 -96.13552 44751 ft 599 kts 90°
2026-04-27 19:17 35.38412 -96.03417 44755 ft 599 kts 90°
2026-04-27 19:18 35.38507 -95.93153 44757 ft 598 kts 90°
2026-04-27 19:18 35.38593 -95.83024 44757 ft 598 kts 90°
2026-04-27 19:19 35.38670 -95.72767 44755 ft 598 kts 90°
2026-04-27 19:19 35.38739 -95.62582 44757 ft 598 kts 90°
2026-04-27 19:20 35.38800 -95.52384 44764 ft 598 kts 90°
2026-04-27 19:20 35.38851 -95.42274 44767 ft 597 kts 90°
2026-04-27 19:21 35.38894 -95.32091 44767 ft 597 kts 90°
2026-04-27 19:21 35.38929 -95.21924 44776 ft 597 kts 90°
2026-04-27 19:22 35.38954 -95.11747 44781 ft 597 kts 90°
2026-04-27 19:22 35.38973 -95.01639 44781 ft 596 kts 90°
2026-04-27 19:23 35.38981 -94.91429 44786 ft 596 kts 90°
2026-04-27 19:23 35.38983 -94.81298 44783 ft 595 kts 90°
2026-04-27 19:24 35.38974 -94.71151 44785 ft 595 kts 90°
2026-04-27 19:24 35.38958 -94.61014 44781 ft 594 kts 90°
2026-04-27 19:25 35.38933 -94.50952 44782 ft 594 kts 90°
2026-04-27 19:25 35.38900 -94.40862 44786 ft 594 kts 90°
2026-04-27 19:26 35.38859 -94.30723 44789 ft 593 kts 90°
2026-04-27 19:26 35.38784 -94.20609 44782 ft 593 kts 91°
2026-04-27 19:27 35.38619 -94.10503 44777 ft 593 kts 91°
2026-04-27 19:27 35.38509 -94.00394 44772 ft 593 kts 91°
2026-04-27 19:28 35.38344 -93.90296 44770 ft 592 kts 91°
2026-04-27 19:28 35.38206 -93.80433 44769 ft 592 kts 91°
2026-04-27 19:29 35.38038 -93.70350 44774 ft 592 kts 91°
2026-04-27 19:29 35.37871 -93.60301 44774 ft 592 kts 91°
2026-04-27 19:30 35.37691 -93.50174 44780 ft 592 kts 91°
2026-04-27 19:30 35.37506 -93.40177 44788 ft 592 kts 91°
2026-04-27 19:31 35.37309 -93.30024 44799 ft 592 kts 91°
2026-04-27 19:31 35.37107 -93.20056 44812 ft 591 kts 91°
2026-04-27 19:32 35.36894 -93.09875 44812 ft 591 kts 91°
2026-04-27 19:32 35.36676 -92.99955 44817 ft 592 kts 91°
2026-04-27 19:33 35.36446 -92.89772 44810 ft 591 kts 91°
2026-04-27 19:33 35.36212 -92.79848 44809 ft 591 kts 91°
2026-04-27 19:34 35.35966 -92.69705 44812 ft 591 kts 91°
2026-04-27 19:34 35.35715 -92.59754 44821 ft 591 kts 91°
2026-04-27 19:35 35.35456 -92.49794 44824 ft 591 kts 91°
2026-04-27 19:35 35.35186 -92.39736 44826 ft 590 kts 92°
2026-04-27 19:36 35.34914 -92.29892 44839 ft 590 kts 92°
2026-04-27 19:36 35.34628 -92.19855 44841 ft 589 kts 92°
2026-04-27 19:37 35.34342 -92.10080 44848 ft 589 kts 92°
2026-04-27 19:37 35.34040 -92.00055 44850 ft 588 kts 92°
2026-04-27 19:38 35.33733 -91.90110 44859 ft 588 kts 92°
2026-04-27 19:38 35.33415 -91.80110 44863 ft 587 kts 92°
2026-04-27 19:39 35.33096 -91.70321 44860 ft 587 kts 92°
2026-04-27 19:39 35.32764 -91.60355 44861 ft 586 kts 92°
2026-04-27 19:40 35.32423 -91.50385 44864 ft 585 kts 91°
2026-04-27 19:40 35.32074 -91.40440 44866 ft 585 kts 92°
2026-04-27 19:41 35.31718 -91.30500 44866 ft 584 kts 92°
2026-04-27 19:41 35.31354 -91.20572 44873 ft 583 kts 91°
2026-04-27 19:42 35.31046 -91.12336 44878 ft 583 kts 92°
2026-04-27 19:42 35.30603 -91.00756 44884 ft 582 kts 91°
2026-04-27 19:43 35.30216 -90.90866 44877 ft 581 kts 91°
2026-04-27 19:43 35.29824 -90.81050 44878 ft 581 kts 91°
2026-04-27 19:44 35.29422 -90.71185 44880 ft 580 kts 92°
2026-04-27 19:44 35.29012 -90.61317 44876 ft 580 kts 92°
2026-04-27 19:45 35.28594 -90.51466 44886 ft 580 kts 92°
2026-04-27 19:45 35.28168 -90.41616 44887 ft 579 kts 92°
2026-04-27 19:46 35.27735 -90.31765 44894 ft 580 kts 92°
2026-04-27 19:46 35.27294 -90.21924 44894 ft 579 kts 92°
2026-04-27 19:47 35.26844 -90.12076 44892 ft 580 kts 92°
2026-04-27 19:47 35.26387 -90.02230 44893 ft 580 kts 92°
2026-04-27 19:48 35.25921 -89.92379 44922 ft 581 kts 92°
2026-04-27 19:48 35.25446 -89.82503 44935 ft 582 kts 92°
2026-04-27 19:49 35.24962 -89.72607 44932 ft 583 kts 92°
2026-04-27 19:49 35.24468 -89.62678 44939 ft 585 kts 92°
2026-04-27 19:50 35.24051 -89.54426 44931 ft 585 kts 92°
2026-04-27 19:50 35.23541 -89.44464 44935 ft 588 kts 92°
2026-04-27 19:51 35.23020 -89.34452 44936 ft 591 kts 92°
2026-04-27 19:51 35.22488 -89.24401 44930 ft 594 kts 93°
2026-04-27 19:52 35.21945 -89.14302 44951 ft 596 kts 93°
2026-04-27 19:52 35.21392 -89.04171 44953 ft 598 kts 93°
2026-04-27 19:53 35.20545 -88.88949 44961 ft 599 kts 93°
2026-04-27 19:53 35.19968 -88.78771 44969 ft 600 kts 93°
2026-04-27 19:54 35.19382 -88.68578 44966 ft 601 kts 93°
2026-04-27 19:54 35.18787 -88.58384 44961 ft 601 kts 93°
2026-04-27 19:55 35.18184 -88.48205 44962 ft 601 kts 92°
2026-04-27 19:55 35.17572 -88.38022 44958 ft 600 kts 92°
2026-04-27 19:56 35.16956 -88.27909 44955 ft 600 kts 92°
2026-04-27 19:56 35.16324 -88.17674 44955 ft 600 kts 92°
2026-04-27 19:57 35.15692 -88.07588 44958 ft 598 kts 92°
2026-04-27 19:57 35.15050 -87.97461 44956 ft 597 kts 92°
2026-04-27 19:58 35.14400 -87.87331 44059 ft 601 kts 92°
2026-04-27 19:58 35.14081 -87.82277 43336 ft 594 kts 92°
2026-04-27 19:58 35.13812 -87.77259 42568 ft 590 kts 92°
2026-04-27 19:59 35.13559 -87.72279 41796 ft 586 kts 92°
2026-04-27 19:59 35.13272 -87.67330 41033 ft 582 kts 93°
2026-04-27 19:59 35.12965 -87.62415 40280 ft 579 kts 93°
2026-04-27 19:59 35.12679 -87.57523 39521 ft 575 kts 93°
2026-04-27 20:00 35.12410 -87.52655 38775 ft 572 kts 93°
2026-04-27 20:00 35.12131 -87.47822 37962 ft 570 kts 94°
2026-04-27 20:00 35.11833 -87.42980 37226 ft 573 kts 94°
2026-04-27 20:00 35.11536 -87.38112 36478 ft 575 kts 94°
2026-04-27 20:01 35.11248 -87.33243 35736 ft 576 kts 94°
2026-04-27 20:01 35.10960 -87.28364 34980 ft 573 kts 94°
2026-04-27 20:01 35.10663 -87.23546 34239 ft 565 kts 94°
2026-04-27 20:01 35.10367 -87.18802 33463 ft 557 kts 94°
2026-04-27 20:02 35.10079 -87.14110 32716 ft 550 kts 94°
2026-04-27 20:02 35.09795 -87.09486 32000 ft 543 kts 94°
2026-04-27 20:02 35.09510 -87.04926 31292 ft 536 kts 94°
2026-04-27 20:02 35.09224 -87.00417 30592 ft 529 kts 94°
2026-04-27 20:03 35.08942 -86.95971 29856 ft 522 kts 94°
2026-04-27 20:03 35.08664 -86.91578 29165 ft 516 kts 94°
2026-04-27 20:03 35.08387 -86.87234 28489 ft 511 kts 94°
2026-04-27 20:03 35.08109 -86.82929 27820 ft 506 kts 94°
2026-04-27 20:04 35.07833 -86.78674 27201 ft 500 kts 94°
2026-04-27 20:04 35.07560 -86.74470 26557 ft 494 kts 94°
2026-04-27 20:04 35.07289 -86.70313 25914 ft 489 kts 94°
2026-04-27 20:04 35.07018 -86.66199 25285 ft 483 kts 94°
2026-04-27 20:05 35.06748 -86.62134 24646 ft 478 kts 94°
2026-04-27 20:05 35.06482 -86.58117 24024 ft 473 kts 94°
2026-04-27 20:05 35.06217 -86.54141 23356 ft 468 kts 94°
2026-04-27 20:05 35.05957 -86.50259 22749 ft 464 kts 94°
2026-04-27 20:06 35.05694 -86.46348 22141 ft 460 kts 94°
2026-04-27 20:06 35.05432 -86.42471 21528 ft 457 kts 94°
2026-04-27 20:06 35.05169 -86.38622 20926 ft 453 kts 94°
2026-04-27 20:06 35.04907 -86.34807 20328 ft 450 kts 94°
2026-04-27 20:07 35.04648 -86.31017 19733 ft 446 kts 95°
2026-04-27 20:07 35.04390 -86.27256 19150 ft 443 kts 95°
2026-04-27 20:07 35.04131 -86.23525 18568 ft 440 kts 95°
2026-04-27 20:07 35.03872 -86.19825 17957 ft 435 kts 95°
2026-04-27 20:08 35.03616 -86.16160 17385 ft 431 kts 95°
2026-04-27 20:08 35.03361 -86.12533 16724 ft 427 kts 95°
2026-04-27 20:08 35.03110 -86.08952 16128 ft 422 kts 95°
2026-04-27 20:08 35.02858 -86.05407 15577 ft 416 kts 95°
2026-04-27 20:09 35.02607 -86.01889 15027 ft 415 kts 95°
2026-04-27 20:09 35.02357 -85.98396 14483 ft 411 kts 95°
2026-04-27 20:09 35.02110 -85.94936 13946 ft 407 kts 95°
2026-04-27 20:09 35.01864 -85.91511 13377 ft 402 kts 95°
2026-04-27 20:10 35.01620 -85.88140 12842 ft 396 kts 95°
2026-04-27 20:10 35.01378 -85.84793 12324 ft 394 kts 95°
2026-04-27 20:10 35.01192 -85.81483 11750 ft 386 kts 91°
2026-04-27 20:10 35.01271 -85.78320 11485 ft 360 kts 87°
2026-04-27 20:11 35.01450 -85.75384 11382 ft 333 kts 85°
2026-04-27 20:11 35.01638 -85.72670 11181 ft 313 kts 85°
2026-04-27 20:11 35.01831 -85.70014 10489 ft 315 kts 85°
2026-04-27 20:11 35.02034 -85.67385 9997 ft 310 kts 85°
2026-04-27 20:12 35.02245 -85.64799 9420 ft 306 kts 85°
2026-04-27 20:12 35.02386 -85.63092 9043 ft 303 kts 85°
2026-04-27 20:12 35.02681 -85.59701 8323 ft 298 kts 85°
2026-04-27 20:12 35.02909 -85.57210 7777 ft 294 kts 85°
2026-04-27 20:13 35.03143 -85.54754 7262 ft 290 kts 85°
2026-04-27 20:13 35.03383 -85.52327 6750 ft 286 kts 85°
2026-04-27 20:13 35.03633 -85.49932 6199 ft 286 kts 85°
2026-04-27 20:13 35.03900 -85.47577 5980 ft 272 kts 85°
2026-04-27 20:14 35.04178 -85.45268 5979 ft 279 kts 85°
2026-04-27 20:14 35.04452 -85.42920 5986 ft 279 kts 85°
2026-04-27 20:14 35.04729 -85.40573 5971 ft 278 kts 85°
2026-04-27 20:14 35.05010 -85.38218 5996 ft 280 kts 85°
2026-04-27 20:15 35.05309 -85.35902 5432 ft 277 kts 81°
2026-04-27 20:15 35.06133 -85.33722 4804 ft 284 kts 63°
2026-04-27 20:15 35.07174 -85.31754 4726 ft 264 kts 60°
2026-04-27 20:15 35.08129 -85.30000 4794 ft 234 kts 59°
2026-04-27 20:16 35.09001 -85.28392 4389 ft 225 kts 60°
2026-04-27 20:16 35.09869 -85.26791 3940 ft 225 kts 60°
2026-04-27 20:16 35.10736 -85.25212 3539 ft 221 kts 59°
2026-04-27 20:16 35.11587 -85.23657 3108 ft 220 kts 60°
2026-04-27 20:17 35.12368 -85.22182 2755 ft 192 kts 69°
2026-04-27 20:17 35.12499 -85.20664 2113 ft 176 kts 102°
2026-04-27 20:17 35.12298 -85.19227 1496 ft 167 kts 105°
2026-04-27 20:17 35.12107 -85.18388 1355 ft 142 kts 125°
2026-04-27 20:18 35.11046 -85.17872 1102 ft 121 kts 181°
2026-04-27 20:18 35.10233 -85.17931 1205 ft 118 kts 192°
2026-04-27 20:18 35.09435 -85.18179 1320 ft 118 kts 195°
2026-04-27 20:18 35.08653 -85.18442 1455 ft 115 kts 192°
2026-04-27 20:19 35.07844 -85.18721 1507 ft 123 kts 195°
2026-04-27 20:19 35.07027 -85.19009 1299 ft 120 kts 194°
2026-04-27 20:19 35.06234 -85.19299 1136 ft 116 kts 197°
2026-04-27 20:19 35.05448 -85.19585 977 ft 120 kts 194°
2026-04-27 20:20 35.04652 -85.19878 828 ft 119 kts 195°
2026-04-27 20:20 35.03838 -85.20180 692 ft 121 kts 194°
2026-04-27 20:20 35.03174 -85.20419 687 ft 68 kts 197°
2026-04-27 20:20 35.02982 -85.20503 688 ft 14 kts 232°
2026-04-27 20:21 35.02992 -85.20609 685 ft 12 kts 307°
2026-04-27 20:21 35.03059 -85.20601 687 ft 10 kts 17°
2026-04-27 20:21 35.03121 -85.20579 687 ft 9 kts 17°
2026-04-27 20:21 35.03178 -85.20558 687 ft 8 kts 17°
2026-04-27 20:22 35.03230 -85.20538 688 ft 7 kts 17°
2026-04-27 20:22 35.03277 -85.20522 688 ft 7 kts 15°
2026-04-27 20:22 35.03309 -85.20553 688 ft 7 kts 294°
2026-04-27 20:22 35.03304 -85.20610 687 ft 7 kts 210°
2026-04-27 20:23 35.03275 -85.20621 686 ft 0 kts 194°